Tracking 19485 objects as of 21-Jan-2019
HD Live streaming from Space Station
objects crossing your sky now

COSMOS 1190

Track COSMOS 1190 now!
10-day predictions
COSMOS 1190 is classified as:


NORAD ID: 11869
Int'l Code: 1980-056A
Perigee: 777.9 km
Apogee: 795.8 km
Inclination: 74.0 °
Period: 100.4 minutes
Semi major axis: 7157 km
RCS: 2.0919 m2 (large)
Launch date: July 1, 1980
Source: Commonwealth of Independent States (former USSR) (CIS)
Launch site: PLESETSK MISSILE AND SPACE COMPLEX (PKMTR)
aabbcc
Your satellite tracking list
Your tracking list is empty




NASA's NSSDC Master Catalog

Two Line Element Set (TLE):
1 11869U 80056A   19020.94757480 +.00000014 +00000-0 +14368-4 0  9991
2 11869 074.0476 300.8012 0012500 087.8563 272.4020 14.33612287992738
Source of the keplerian elements: AFSPC